Regional Weather Roundup
Issued by NWS

Home | Current Version | Previous Version | Graphics & Text | Print | Product List | Glossary On
Versions: 1 2 3 4 5 6 7 8 9 10 11 12 13 14 15 16 17 18 19 20 21 22 23 24 25 26 27 28 29 30 31 32 33 34 35 36 37 38 39 40 41 42 43 44 45 46 47 48 49 50
866
ASUS43 KLOT 230402
RWRIL

ILLINOIS REGIONAL WEATHER ROUNDUP
NATIONAL WEATHER SERVICE CHICAGO/ROMEOVILLE IL
1100 PM CDT WED MAR 22 2017

NOTE: "FAIR" INDICATES FEW OR NO CLOUDS BELOW 12,000 FEET WITH NO
SIGNIFICANT WEATHER AND/OR OBSTRUCTIONS TO VISIBILITY.

* THESE STATIONS ARE NOT UNDER NWS QUALITY CONTROL. THEY ALSO MAY NOT
  REPORT WEATHER SUCH AS PRECIPITATION OR FOG.

ILZ001-002-007-009-015-016-024-230500-
NORTHWEST ILLINOIS

CITY           SKY/WX    TMP DP  RH WIND       PRES   REMARKS
MOLINE         CLOUDY    37  20  50 SE13      30.40F WCI  29
STERLING*      CLOUDY    34  19  54 E12       30.43F WCI  25
SAVANNA*       CLOUDY    36  21  54 SE12      30.42F WCI  28
$$

ILZ003-004-008-010-011-017-018-230500-
NORTH CENTRAL ILLINOIS

CITY           SKY/WX    TMP DP  RH WIND       PRES   REMARKS
ROCKFORD       CLOUDY    30  18  60 E8        30.48R WCI  22
FREEPORT*      CLOUDY    31  19  61 E12       30.46R WCI  21
ROCHELLE*      CLOUDY    30  19  62 E12       30.46S WCI  20
DE KALB*       MOCLDY    26  19  72 E8        30.46S WCI  18
PERU*          CLEAR     30  21  68 E7        30.46S WCI  23
$$

ILZ005-006-012>014-019>023-230500-
NORTHEAST ILLINOIS

CITY           SKY/WX    TMP DP  RH WIND       PRES   REMARKS
CHICAGO-OHARE  PTCLDY    30  19  63 E6        30.47S WCI  24
CHICAGO-MIDWAY PTCLDY    32  23  69 E6        30.48F WCI  26
AURORA         MOCLDY    28  19  69 E6        30.47S WCI  22
LANSING*       CLEAR     29  25  84 E5        30.48F WCI  24
JOLIET*        PTCLDY    30  22  73 E6        30.48S WCI  24
WAUKEGAN       CLEAR     22  18  85 CALM      30.48S
DUPAGE AIRPORT CLEAR     25  19  78 NE3       30.47R
KANKAKEE*      CLEAR     28  22  77 CALM      30.47F
WHEELING       CLEAR     27  20  75 CALM      30.49S
MORRIS*        MOCLDY    28  22  76 E3        30.47R
NORTHERLY ISL    N/A     32  24  73 E9          N/A  WCI  24
$$

LMZ740>746-230500-
SOUTHERN LAKE MICHIGAN

STATION/POSITION SKY/WX   TEMP    WIND        PRES    VSBY  WAVE
                          AIR SEA DIR/SP/G                  HT/PER
                          (F)     (DEG/KT/KT) (MB)    (MI)  (FT/S)
HARRISON CRIB              33      90/ 10/ 11   N/A
BURNHAM HARBOR             32     110/  6/  9   N/A
CALUMET HARBOR             32      70/  8/ 11 1031.2F
BURNS HARBOR               31      90/  7/  9 1032.2F
MICHIGAN CITY              29      80/  8/  9   N/A
$$

ILZ025>027-034>036-040-047-049-050-058-095>099-230500-
WEST-CENTRAL ILLINOIS

CITY           SKY/WX    TMP DP  RH WIND       PRES   REMARKS
QUINCY         PTCLDY    40  15  36 E13       30.35F
GALESBURG*     CLOUDY    36  23  59 E8          N/A  WCI  29
MACOMB*        CLOUDY    38  21  50 SE17      30.42S WCI  29
JACKSONVILLE*  CLOUDY    38  19  46 E10       30.40S WCI  31
PITTSFIELD*    CLOUDY    40  17  38 E9        30.38F
$$

ILZ028>032-037-038-041>044-048-051>054-059>061-230500-
CENTRAL ILLINOIS

CITY           SKY/WX    TMP DP  RH WIND       PRES   REMARKS
PONTIAC        CLEAR     30  27  86 E7        30.46F WCI  23
BLOOMINGTON    CLEAR     29  22  75 E9        30.44S WCI  20
DECATUR        PTCLDY    35  21  56 E12       30.42F WCI  27
PEORIA         CLOUDY    36  21  54 E9        30.42F WCI  29
LACON*         PTCLDY    32  23  69 E8        30.43F WCI  25
LINCOLN*       CLOUDY    37  24  59 E12       30.42F WCI  29
SPRINGFIELD    CLOUDY    39  20  46 E9        30.41S WCI  33
TAYLORVILLE    CLEAR     36  20  53 E8        30.42S WCI  29
$$

ILZ033-039-045-046-055>057-062-063-230500-
EAST-CENTRAL ILLINOIS

CITY           SKY/WX    TMP DP  RH WIND       PRES   REMARKS
CHAMPAIGN      CLOUDY    34  21  59 E14       30.43F WCI  25
RANTOUL*       CLEAR     33  25  73 E8        30.44S WCI  26
MATTOON        CLOUDY    35  21  56 E9        30.40F WCI  28
PARIS*         PTCLDY    33  24  69 E8        30.45F WCI  26
$$

ILZ079-100>102-230500-
SOUTHWEST ILLINOIS

CITY           SKY/WX    TMP DP  RH WIND       PRES   REMARKS
ALTON          CLOUDY    39  21  48 E6        30.40S WCI  35
BELLEVILLE     CLOUDY    42  21  42 E5        30.38S
CAHOKIA*       CLOUDY    44  19  36 E10       30.38S
SPARTA*        CLOUDY    41  26  54 E6        30.38F
$$

ILZ064>066-069>071-074>076-080>082-084>086-088>090-092>094-230500-
SOUTH-CENTRAL ILLINOIS

CITY           SKY/WX    TMP DP  RH WIND       PRES   REMARKS
CARBONDALE     CLEAR     41  23  48 E6        30.37F
CAIRO*         CLEAR     43  28  55 NE5       30.36S
EFFINGHAM*     PTCLDY    38  23  53 NE8       30.43S WCI  33
MARION         CLEAR     43  21  42 E6        30.38S
MT. VERNON     CLEAR     40  20  44 NE9       30.39F
CENTRALIA*     CLEAR     41  24  51 E7        30.38S
SALEM*         CLOUDY    41  21  44 E7        30.40S
METROPOLIS*    CLEAR     44  22  41 NE5       30.37S
$$

ILZ067-068-072-073-078-083-087-091-230500-
SOUTHEAST ILLINOIS

CITY           SKY/WX    TMP DP  RH WIND       PRES   REMARKS
LAWRENCEVILLE  CLOUDY    37  19  48 NE9       30.43S WCI  30
FLORA*         CLEAR     40  22  47 E8        30.41S
FAIRFIELD*     CLEAR     39  22  48 NE5       30.40S
HARRISBURG*    CLEAR     41  24  51 E8        30.39S
ROBINSON*      CLOUDY    36  20  53 E9        30.44S WCI  29
CARMI*         CLEAR     40  22  49 E9        30.40S
$$

ABBREVIATIONS USED IN REMARKS
   TC - TEMPERATURE IN CELSIUS
  WCI - WIND CHILL INDEX
   HX - HEAT INDEX
  VSB - VISIBILITY
$$





USA.gov is the U.S. government's official web portal to all federal, state and local government web resources and services.